TRA44I LGIR-EHRD

Flight info

Callsign TRA44I
Flight time N/A
Altitude 36000
Route EPALO M749 DIRMI UL613 KOR DCT TUMBO DCT RODON DCT VAKSU DCT PUL DCT PEVAL DCT MOBDO DCT SOTOV DCT XEBIX DCT USUDO DCT LIRSU DCT SOGRI L608 BUB Y28 HELEN
Aircraft B738/M-SDE2E3FGHIRWXY/LB1

Departure

Time N/A
Airport Heraklion International Nikos Kazantzakis Airport (LGIR)

Arrival

Time 2026-05-05 19:38
Airport Rotterdam The Hague Airport (EHRD)
Time Latitude Longitude Altitude Speed Heading
2026-05-05 19:16 49.86742 6.96401 35752 ft 477 kts 315°
2026-05-05 19:17 49.91449 6.89353 35793 ft 470 kts 314°
2026-05-05 19:17 49.96084 6.82113 35814 ft 469 kts 313°
2026-05-05 19:18 50.03815 6.69592 35808 ft 469 kts 312°
2026-05-05 19:18 50.12846 6.54879 35799 ft 470 kts 312°
2026-05-05 19:19 50.21512 6.39546 35803 ft 468 kts 303°
2026-05-05 19:19 50.28896 6.22689 35804 ft 469 kts 303°
2026-05-05 19:20 50.36344 6.05919 35820 ft 471 kts 303°
2026-05-05 19:20 50.48270 5.78995 35847 ft 473 kts 303°
2026-05-05 19:21 50.63218 5.44815 33388 ft 481 kts 303°
2026-05-05 19:21 50.70768 5.27383 30418 ft 484 kts 303°
2026-05-05 19:21 50.78328 5.09816 27566 ft 474 kts 303°
2026-05-05 19:22 50.83344 4.91372 25816 ft 439 kts 283°
2026-05-05 19:22 50.86544 4.73061 23781 ft 427 kts 285°
2026-05-05 19:22 50.89967 4.55180 21453 ft 416 kts 287°
2026-05-05 19:22 50.95573 4.39493 19443 ft 403 kts 302°
2026-05-05 19:23 50.99566 4.29682 18153 ft 395 kts 301°
2026-05-05 19:23 51.03201 4.20259 16848 ft 387 kts 300°
2026-05-05 19:23 51.04693 4.16336 16369 ft 385 kts 301°
2026-05-05 19:23 51.11170 4.01160 14290 ft 376 kts 322°
2026-05-05 19:24 51.13782 3.98228 13955 ft 366 kts 328°
2026-05-05 19:24 51.15213 3.96692 13660 ft 366 kts 327°
2026-05-05 19:24 51.17304 3.94349 13154 ft 367 kts 326°
2026-05-05 19:24 51.19368 3.91937 12668 ft 366 kts 325°
2026-05-05 19:25 51.21475 3.89781 12173 ft 361 kts 340°
2026-05-05 19:25 51.23904 3.89108 11687 ft 354 kts
2026-05-05 19:25 51.26267 3.89819 11498 ft 335 kts 18°
2026-05-05 19:25 51.28433 3.90915 11370 ft 315 kts 19°
2026-05-05 19:26 51.30463 3.91986 11226 ft 299 kts 19°
2026-05-05 19:26 51.32405 3.93016 11058 ft 290 kts 19°
2026-05-05 19:26 51.34289 3.94008 10785 ft 288 kts 19°
2026-05-05 19:26 51.36193 3.95003 10459 ft 287 kts 18°
2026-05-05 19:27 51.38115 3.96001 10173 ft 286 kts 18°
2026-05-05 19:27 51.39984 3.96967 9872 ft 285 kts 18°
2026-05-05 19:27 51.41875 3.97942 9551 ft 284 kts 18°
2026-05-05 19:27 51.43745 3.98904 9262 ft 282 kts 18°
2026-05-05 19:28 51.45609 3.99863 8946 ft 281 kts 18°
2026-05-05 19:28 51.47467 4.00818 8651 ft 278 kts 18°
2026-05-05 19:28 51.49310 4.01766 8355 ft 277 kts 18°
2026-05-05 19:28 51.51146 4.02710 8070 ft 275 kts 18°
2026-05-05 19:29 51.52964 4.03646 7774 ft 274 kts 18°
2026-05-05 19:29 51.54778 4.04580 7488 ft 272 kts 18°
2026-05-05 19:29 51.56575 4.05506 7203 ft 271 kts 18°
2026-05-05 19:29 51.58376 4.06435 6914 ft 270 kts 18°
2026-05-05 19:30 51.60160 4.07356 6639 ft 268 kts 18°
2026-05-05 19:30 51.61913 4.08262 6372 ft 267 kts 18°
2026-05-05 19:30 51.63680 4.09176 6102 ft 265 kts 18°
2026-05-05 19:30 51.65415 4.10073 5762 ft 260 kts 18°
2026-05-05 19:31 51.67137 4.10965 5337 ft 259 kts 18°
2026-05-05 19:31 51.68861 4.11858 5024 ft 259 kts 18°
2026-05-05 19:31 51.70572 4.12746 4741 ft 255 kts 18°
2026-05-05 19:31 51.72252 4.13618 4377 ft 251 kts 19°
2026-05-05 19:32 51.73871 4.14457 4190 ft 240 kts 19°
2026-05-05 19:32 51.75437 4.15271 3927 ft 234 kts 19°
2026-05-05 19:32 51.76971 4.16070 3639 ft 228 kts 19°
2026-05-05 19:32 51.78466 4.16849 3351 ft 222 kts 20°
2026-05-05 19:33 51.78574 4.16905 3327 ft 222 kts 20°
2026-05-05 19:33 51.79853 4.17571 3105 ft 214 kts 20°
2026-05-05 19:33 51.81222 4.18285 2837 ft 207 kts 20°
2026-05-05 19:33 51.82583 4.18996 2570 ft 204 kts 20°
2026-05-05 19:34 51.83931 4.19699 2283 ft 201 kts 19°
2026-05-05 19:34 51.85244 4.20387 2047 ft 195 kts 21°
2026-05-05 19:34 51.86374 4.21608 2018 ft 201 kts 47°
2026-05-05 19:35 51.88113 4.25053 1981 ft 192 kts 52°
2026-05-05 19:35 51.88850 4.26815 1976 ft 182 kts 56°
2026-05-05 19:35 51.89481 4.28406 1979 ft 157 kts 55°
2026-05-05 19:35 51.90023 4.29777 1951 ft 138 kts 54°
2026-05-05 19:36 51.90536 4.31066 1786 ft 136 kts 54°
2026-05-05 19:36 51.91048 4.32354 1610 ft 135 kts 55°
2026-05-05 19:36 51.91550 4.33619 1416 ft 132 kts 54°
2026-05-05 19:36 51.92051 4.34878 1246 ft 134 kts 54°
2026-05-05 19:37 51.92555 4.36146 1056 ft 134 kts 53°
2026-05-05 19:37 51.93069 4.37438 857 ft 138 kts 54°
2026-05-05 19:37 51.93586 4.38741 661 ft 135 kts 53°
2026-05-05 19:37 51.94089 4.40003 477 ft 132 kts 54°
2026-05-05 19:38 51.94584 4.41261 263 ft 139 kts 54°
2026-05-05 19:38 51.95100 4.42550 98 ft 132 kts 54°
2026-05-05 19:38 51.95576 4.43745 -1 ft 109 kts 58°
2026-05-05 19:38 51.95873 4.44487 -3 ft 47 kts 57°
2026-05-05 19:39 51.95995 4.44791 -2 ft 29 kts 57°
2026-05-05 19:39 51.96102 4.45059 1 ft 26 kts 57°
2026-05-05 19:39 51.96158 4.45240 1 ft 14 kts 87°
2026-05-05 19:39 51.96111 4.45374 0 ft 14 kts 135°
2026-05-05 19:40 51.96031 4.45366 1 ft 13 kts 230°
2026-05-05 19:40 51.95979 4.45242 0 ft 15 kts 237°
2026-05-05 19:40 51.95914 4.45079 0 ft 20 kts 237°
2026-05-05 19:40 51.95820 4.44843 1 ft 28 kts 237°
2026-05-05 19:41 51.95715 4.44582 0 ft 27 kts 237°
2026-05-05 19:41 51.95616 4.44334 0 ft 25 kts 237°
2026-05-05 19:41 51.95524 4.44104 0 ft 23 kts 237°
2026-05-05 19:41 51.95438 4.43887 0 ft 23 kts 237°
2026-05-05 19:42 51.95354 4.43677 0 ft 22 kts 237°
2026-05-05 19:42 51.95285 4.43505 1 ft 13 kts 237°
2026-05-05 19:42 51.95236 4.43444 0 ft 9 kts 160°
2026-05-05 19:42 51.95184 4.43497 0 ft 9 kts 147°
2026-05-05 19:43 51.95134 4.43550 0 ft 8 kts 147°
2026-05-05 19:43 51.95087 4.43567 0 ft 6 kts 221°
2026-05-05 19:43 51.95066 4.43512 0 ft 6 kts 237°
2026-05-05 19:43 51.95043 4.43455 0 ft 6 kts 236°
2026-05-05 19:44 51.95043 4.43398 0 ft 6 kts 319°
2026-05-05 19:44 51.95066 4.43373 0 ft 1 kts 326°
2026-05-05 19:44 51.95069 4.43369 0 ft 0 kts 326°
2026-05-05 20:08 51.78848 4.17047 3271 ft 221 kts 20°
2026-05-05 20:08 51.93857 4.39420 567 ft 133 kts 54°
2026-05-05 20:08 51.94288 4.40502 413 ft 134 kts 54°
2026-05-05 20:08 51.94808 4.41837 205 ft 137 kts 53°
2026-05-05 20:09 51.95361 4.43203 14 ft 129 kts 53°
2026-05-05 20:09 51.95802 4.44309 -1 ft 67 kts 57°
2026-05-05 20:09 51.95960 4.44704 -2 ft 30 kts 57°
2026-05-05 20:09 51.96082 4.45009 1 ft 27 kts 57°
2026-05-05 20:10 51.96157 4.45231 1 ft 14 kts 83°
2026-05-05 20:10 51.96158 4.45240 1 ft 14 kts 86°
2026-05-05 20:10 51.93234 4.37853 797 ft 138 kts 53°
2026-05-05 20:10 51.93725 4.39090 617 ft 133 kts 54°
2026-05-05 20:11 51.94152 4.40161 458 ft 132 kts 54°
2026-05-05 20:11 51.94374 4.40720 364 ft 133 kts 53°
2026-05-05 20:11 51.94430 4.40864 328 ft 133 kts 54°
2026-05-05 20:12 51.94735 4.41652 220 ft 139 kts 53°
2026-05-05 20:13 51.95305 4.43061 27 ft 130 kts 53°
2026-05-05 20:13 51.95744 4.44164 -1 ft 80 kts 57°
2026-05-05 20:13 51.95942 4.44658 -2 ft 30 kts 57°
2026-05-05 20:13 51.96055 4.44942 0 ft 28 kts 57°
2026-05-05 20:14 51.96149 4.45182 3 ft 14 kts 64°
2026-05-05 20:14 51.93815 4.39316 583 ft 133 kts 54°
2026-05-05 20:14 51.94287 4.40499 414 ft 134 kts 54°
2026-05-05 20:14 51.94758 4.41710 214 ft 138 kts 53°
2026-05-05 20:15 51.95254 4.42935 44 ft 131 kts 53°
2026-05-05 20:15 51.95654 4.43938 -1 ft 97 kts 57°
2026-05-05 20:15 51.95886 4.44519 -3 ft 42 kts 57°
2026-05-05 20:15 51.95997 4.44796 -2 ft 29 kts 57°
2026-05-05 20:16 51.94081 4.39981 478 ft 132 kts 54°
2026-05-05 20:16 51.94150 4.40156 460 ft 132 kts 54°
2026-05-05 20:17 51.94234 4.40366 435 ft 133 kts 54°
2026-05-05 20:17 51.94666 4.41475 240 ft 139 kts 54°
2026-05-05 20:17 51.95165 4.42710 68 ft 132 kts 53°
2026-05-05 20:17 51.95604 4.43815 0 ft 105 kts 57°
2026-05-05 20:18 51.95855 4.44442 -2 ft 53 kts 57°
2026-05-05 20:18 51.94073 4.39962 479 ft 132 kts 54°
2026-05-05 20:18 51.94543 4.41158 278 ft 138 kts 54°
2026-05-05 20:18 51.95097 4.42542 100 ft 132 kts 54°
2026-05-05 20:19 51.95588 4.43775 0 ft 107 kts 57°
2026-05-05 20:19 51.95877 4.44497 -3 ft 45 kts 57°
2026-05-05 20:19 51.95995 4.44791 -2 ft 29 kts 57°